Flag for Switzerland Weather past 2 weeks in Delémont, Jura, Switzerland

Now
37 °F

Chilly.


Feels Like: 31 °F
Forecast: 29 / 40 °F
Wind: 7 mph from Southwest

Location: Grenchen

Current Time: Jan 27, 2015 at 6:07:46 PM

Latest Report: Jan 27, 2015 at 5:00 PM


Visibility: N/A

Pressure: 30.29 "Hg

Humidity: 72%

Dew point: 28 °F

Location of DelémontLocation

Historic Weather in Delémont — Graph

°F

Delémont temperature yesterday

Maximum temperature yesterday: 33 °F (at 11:00 PM)
Minimum temperature yesterday: 29 °F (at 9:00 AM)
Average temperature yesterday: 30 °F

Past Weeks' High & Low Weather Summary

 TemperatureHumidityPressure
High51 °F (Jan 13, 3:00 PM)100% (Jan 13, 4:00 AM)30.49 "Hg (Jan 13, 4:00 AM)
Low23 °F (Jan 13, 8:00 AM)54% (Jan 13, 3:00 PM)29.72 "Hg (Jan 16, 4:00 PM)
Average34 °F91%30.10 "Hg
* Reported Jan 12 4:00 PM — Jan 27 4:00 PM, Delémont, Weather by CustomWeather, © 2014

Note: Actual official high and low records may vary slightly from our data, if they occured in-between our weather recording intervals... More about our weather records

Advertising

Delémont weather history for previous 24 hours

 ConditionsComfort  
Time TempWeatherWind HumidityBarometerVisibility
4:00 PM
Jan 27
37 °FChilly.2 mph76%30.29 "HgN/A
3:00 PM36 °FChilly.3 mph84%30.29 "HgN/A
2:00 PM35 °FChilly.1 mph97%30.30 "HgN/A
1:00 PM34 °FChilly.1 mph99%30.32 "HgN/A
12:00 PM34 °FChilly.No wind97%30.32 "HgN/A
11:00 AM33 °FChilly.1 mph100%30.32 "HgN/A
10:00 AM33 °FChilly.2 mph99%30.31 "HgN/A
9:00 AM33 °FChilly.5 mph99%30.31 "HgN/A
8:00 AM33 °FChilly.1 mph99%30.31 "HgN/A
7:00 AM33 °FChilly.3 mph99%30.29 "HgN/A
6:00 AM33 °FChilly.2 mph99%30.27 "HgN/A
5:00 AM33 °FChilly.3 mph99%30.27 "HgN/A
4:00 AM33 °FChilly.6 mph99%30.26 "HgN/A
3:00 AM34 °FChilly.9 mph99%30.26 "HgN/A
2:00 AM33 °FChilly.10 mph99%30.27 "HgN/A
1:00 AM33 °FChilly.10 mph99%30.28 "HgN/A
12:00 AM33 °FChilly.6 mph100%30.28 "HgN/A
11:00 PM
Jan 26
33 °FChilly.10 mph98%30.28 "HgN/A
9:00 PM32 °FChilly.7 mph99%30.30 "HgN/A
8:00 PM31 °FChilly.7 mph99%30.31 "HgN/A
7:00 PM31 °FChilly.8 mph99%30.32 "HgN/A
6:00 PM30 °FChilly.6 mph99%30.33 "HgN/A
Weather by CustomWeather, © 2014

See weather overviewHow to use our weather pages